Terug naar catalogus

FENGYUN 1C DEB

ActiefSSO
NORAD 31021·DEBRIS·🇨🇳 China

Gelanceerd May 10, 1999 vanaf Taiyuan Satellite Launch Center

Loading…

Volgende Passages (komende 24 uur)

TLE

VersSource: Space-Track

Epoch: Sep 14, 2026, 02:07 UTC

1 31021U 99025BDP 26257.08869377  .00004045  00000-0  31620-3 0  9990
2 31021  98.3749  22.9259 0257563  81.9238 281.1105 14.79064912774983

Volg FENGYUN 1C DEB in realtime met AllMySat

Download on the App Store